Wind_Speed
16 17 23 22 30 33 31 33 29 19 23 28 31 33 33 34 35 36 39 39 39 39 42 45 43 42 40 42 49 54 56 55 61 60 60 50 49 49 49 47 50 50 52
28 18 20 20 29 37 37 28 23 20 24 33 34 35 34 33 35 38 36 37 39 41 45 44 41 39 39 45 51 56 58 51 54 58 52 49 43 43 47 50 48 52 52
33 31 24 23 28 34 33 35 23 19 29 31 31 33 33 32 32 36 35 37 40 42 43 43 39 39 44 50 54 61 58 55 53 48 40 39 26 27 31 37 42 44 51
25 33 29 23 31 35 30 29 30 30 28 30 31 29 29 30 33 34 35 39 40 41 41 40 37 41 47 54 59 63 50 50 35 36 39 34 25 24 29 30 35 36 41
20 24 27 27 31 33 30 30 32 34 32 34 34 27 27 30 33 33 36 38 41 41 39 37 36 42 46 50 59 56 51 35 35 35 36 34 30 26 26 26 28 29 37
22 23 23 28 31 31 31 32 35 37 37 36 29 25 27 30 32 34 35 37 37 40 42 35 37 43 48 49 56 55 39 27 34 32 32 32 29 26 27 22 23 21 26
17 20 24 25 30 32 34 35 38 37 35 31 24 25 29 29 32 33 31 34 38 39 38 36 38 42 47 50 59 45 25 26 28 29 36 28 25 19 24 20 18 12 18
11 14 20 26 31 34 36 36 34 34 30 25 23 26 27 27 29 31 29 35 37 35 34 35 38 42 46 49 59 41 25 24 24 26 27 25 21 17 20 17 12 8 15
17 20 23 27 29 33 33 30 29 28 22 22 23 26 25 27 35 34 30 36 33 32 31 34 38 41 42 44 59 49 24 26 28 32 36 25 16 14 14 17 16 12 15
23 22 21 24 28 29 27 27 25 18 20 20 21 25 25 31 31 29 30 34 31 31 30 32 36 37 37 40 47 62 44 26 38 28 14 5 9 14 10 13 17 12 14
26 25 24 23 23 26 26 25 21 19 20 23 28 25 24 28 28 25 28 32 32 30 29 31 33 35 33 37 37 54 51 29 30 19 20 14 6 6 8 12 13 15 13
28 24 23 19 23 23 22 20 19 20 20 23 27 26 25 29 25 24 26 33 31 30 29 30 30 31 30 31 31 38 47 41 20 20 16 13 10 7 9 10 9 10 11
25 20 20 21 20 18 15 16 21 21 21 24 27 27 28 30 23 21 26 30 31 28 28 28 26 27 28 26 26 29 35 37 37 20 20 24 10 9 4 2 5 6 9
25 19 19 17 19 19 21 22 21 23 24 24 29 26 28 29 21 20 27 30 27 25 25 24 22 23 25 25 23 24 26 28 35 38 31 18 19 17 6 9 7 10 10
23 19 18 20 21 23 23 20 24 25 23 26 27 25 26 17 19 22 26 26 27 22 21 21 20 19 19 20 21 21 22 21 22 27 31 35 34 16 14 15 15 9 4
21 20 20 22 23 24 25 22 24 25 26 25 23 17 14 16 16 19 25 25 25 21 20 19 19 21 19 20 19 20 19 18 18 19 21 24 27 29 30 25 17 21 17
17 19 21 23 23 23 24 23 23 24 22 20 14 15 14 13 13 20 21 23 22 20 19 19 18 19 19 18 19 18 18 18 19 17 15 15 16 16 17 20 21 22 23
18 16 15 15 17 18 19 23 22 18 18 14 11 9 8 11 15 16 20 21 18 18 17 17 17 17 18 18 17 17 18 17 16 16 15 15 15 15 14 12 13 15 16
18 15 13 14 14 16 18 19 16 15 12 12 10 10 11 13 18 14 18 18 17 17 17 17 17 17 16 16 15 15 14 14 14 14 15 15 15 15 15 16 16 16 15
11 9 7 9 9 12 14 14 13 12 11 11 11 10 11 16 17 14 16 16 16 16 16 18 17 15 14 14 14 14 14 14 14 13 14 14 14 13 14 15 15 15 14
8 7 7 9 12 12 13 15 13 11 12 13 13 9 9 13 11 12 15 15 15 15 15 15 16 15 14 14 14 14 13 13 12 11 11 11 12 12 12 12 12 13 14
8 8 9 11 15 17 16 17 14 11 10 10 10 9 7 8 9 11 12 13 14 14 15 15 14 14 14 14 14 14 13 11 9 9 11 12 12 12 12 13 13 14 15
10 11 11 10 9 12 15 15 13 11 14 14 12 11 15 4 7 10 12 12 13 15 14 13 13 12 12 13 13 12 11 11 10 10 10 10 10 11 13 14 15 16 16
13 13 12 10 8 10 16 18 16 12 14 7 10 16 4 3 8 10 10 11 13 13 13 13 13 13 12 12 12 11 10 9 10 10 11 11 12 13 14 15 16 17 18
15 14 13 12 12 11 12 12 11 9 12 8 6 3 3 7 10 11 12 12 12 12 12 12 13 13 13 12 11 10 10 10 10 10 11 12 14 15 16 17 18 18 18
9 8 8 9 9 8 9 10 11 8 7 11 10 9 11 10 11 11 11 11 10 10 11 11 12 12 11 10 10 10 11 11 12 12 13 14 16 17 18 19 19 19 19
Wind_Direction
275 282 280 297 273 262 259 289 268 265 283 299 305 304 296 294 300 305 310 313 313 316 317 318 318 315 315 314 314 317 313 302 302 301 300 291 278 271 270 262 253 250 248
265 267 277 299 279 267 256 280 277 271 298 305 304 299 293 296 300 304 311 311 311 315 316 319 320 317 316 321 323 322 316 305 299 299 300 301 285 270 265 262 253 252 248
263 264 270 288 290 293 278 276 288 312 308 306 300 293 293 298 304 305 309 310 312 314 318 319 320 318 323 323 320 325 320 309 303 293 304 309 299 273 264 260 261 257 248
270 261 273 278 298 296 286 285 302 308 309 305 305 298 295 300 301 306 311 312 312 315 319 318 319 322 324 326 325 324 316 312 305 299 298 305 296 286 283 274 269 261 247
261 267 269 258 287 298 295 290 290 304 307 307 304 293 298 301 302 310 311 315 314 316 320 318 322 328 329 330 333 324 324 311 310 309 305 294 289 279 287 280 279 272 242
252 263 252 253 279 286 288 287 288 294 301 300 293 296 299 298 303 307 313 319 319 319 322 321 326 331 333 331 338 327 324 312 318 314 309 301 297 277 280 282 278 271 242
256 255 246 259 268 272 273 274 280 288 294 303 290 294 295 298 308 314 321 324 322 323 322 322 330 332 333 335 339 331 335 314 318 308 313 301 296 269 271 263 272 250 232
315 281 261 259 259 263 266 272 283 291 298 291 288 295 296 303 315 321 325 325 324 324 322 327 333 333 337 342 348 337 335 341 324 319 309 313 286 284 276 221 220 230 209
308 290 270 260 255 261 270 280 290 297 294 286 298 303 296 311 323 318 323 328 325 325 327 332 335 334 339 349 351 359 345 336 332 318 296 290 276 261 263 211 198 209 206
318 306 280 267 263 269 278 286 296 302 289 287 303 306 301 317 317 310 319 326 329 330 334 335 337 334 340 353 356 351 1 351 343 354 356 307 274 258 236 204 205 197 209
315 304 293 285 273 271 275 283 285 287 280 288 300 307 306 319 313 306 311 323 325 332 337 337 337 337 345 357 360 1 8 356 357 19 9 5 51 151 210 187 189 201 198
310 296 286 278 271 273 274 271 262 277 273 293 300 300 308 319 314 303 317 321 325 332 338 339 338 340 351 357 358 5 7 12 16 33 32 26 54 98 146 172 180 196 204
299 286 279 276 264 262 271 264 271 268 276 294 297 292 300 311 304 316 325 328 330 331 335 337 338 340 354 353 356 357 14 17 23 31 38 41 85 72 80 140 187 194 198
301 289 278 264 266 266 278 278 265 266 278 295 292 294 300 308 298 309 315 327 330 329 334 333 335 344 351 351 354 1 12 25 35 35 43 45 41 102 102 107 226 206 204
289 276 269 261 260 264 274 271 260 266 279 289 292 300 301 286 317 303 314 320 325 328 337 332 341 349 345 353 354 2 10 22 33 36 38 39 47 39 32 64 65 80 127
278 274 264 255 255 258 269 263 263 271 281 286 292 294 293 297 298 304 311 325 325 331 335 331 346 344 357 354 2 6 8 13 22 34 38 38 49 47 51 57 60 74 79
277 267 262 253 247 255 263 259 266 276 279 287 281 292 296 293 298 316 313 324 325 329 332 333 346 346 351 357 354 0 11 16 19 20 22 30 38 48 52 61 62 69 69
291 283 270 257 253 255 254 255 266 268 275 266 272 284 294 296 306 310 317 321 326 327 331 336 345 349 349 350 354 356 4 12 16 18 23 27 31 34 38 38 37 40 44
292 283 267 256 255 254 255 257 254 257 242 256 261 258 283 285 298 295 316 324 327 325 333 340 347 346 350 349 350 356 3 6 9 16 22 27 30 32 33 39 41 44 45
298 298 268 241 253 265 253 237 232 233 252 247 251 262 283 295 277 282 310 330 321 323 338 340 344 345 351 355 353 359 2 7 8 11 20 27 35 33 34 33 32 32 34
303 299 255 255 273 247 229 224 242 238 230 245 262 270 267 294 296 305 321 328 318 323 334 340 340 341 347 352 352 357 359 2 6 12 20 26 24 25 26 27 25 20 19
276 284 283 283 284 244 232 234 237 237 257 261 241 264 238 256 293 307 324 323 321 328 335 340 340 341 342 346 347 347 351 356 360 2 7 8 9 11 11 9 7 5 4
282 284 284 289 290 235 230 224 234 257 259 233 232 233 255 227 303 318 321 323 324 328 336 338 338 342 343 341 340 342 346 347 350 350 353 358 359 359 356 353 353 353 352
290 294 287 277 264 239 233 242 257 259 253 292 230 231 188 316 317 323 329 329 326 328 335 338 340 342 342 340 342 345 345 345 344 343 346 349 349 347 345 344 343 342 341
289 290 277 259 249 251 250 244 241 235 246 244 203 222 294 293 313 327 329 328 328 332 337 340 341 340 340 342 344 343 343 347 347 345 342 341 341 340 337 336 336 338 338
292 284 272 250 249 226 198 229 214 194 218 219 223 238 263 291 313 317 319 324 329 337 343 346 346 346 345 344 343 344 347 348 346 344 344 342 339 336 336 337 337 338 339
Height
3189 3191 3192 3192 3190 3187 3187 3185 3188 3183 3184 3184 3180 3176 3172 3169 3166 3163 3160 3156 3151 3147 3141 3134 3130 3122 3117 3111 3103 3094 3084 3075 3059 3053 3051 3053 3050 3052 3054 3059 3062 3065 3068
3186 3186 3186 3186 3185 3181 3177 3178 3174 3175 3176 3177 3173 3169 3165 3162 3160 3158 3153 3148 3144 3139 3133 3127 3121 3114 3108 3100 3091 3081 3070 3062 3049 3037 3038 3030 3031 3034 3034 3036 3042 3046 3051
3180 3181 3182 3181 3179 3176 3174 3171 3164 3165 3169 3169 3166 3162 3158 3156 3153 3150 3145 3141 3136 3131 3124 3117 3110 3103 3096 3087 3077 3067 3054 3044 3037 3028 3023 3020 3017 3017 3020 3021 3023 3029 3033
3172 3174 3176 3176 3173 3172 3170 3166 3162 3163 3162 3161 3159 3155 3152 3149 3145 3142 3139 3135 3130 3123 3117 3110 3103 3095 3086 3077 3065 3055 3042 3032 3024 3018 3014 3013 3010 3010 3008 3011 3012 3013 3016
3167 3167 3168 3169 3168 3165 3163 3160 3158 3156 3155 3155 3153 3148 3145 3143 3140 3137 3133 3129 3123 3116 3111 3103 3096 3087 3079 3071 3056 3044 3029 3022 3015 3009 3005 3005 3004 3003 3003 3003 3002 3001 3003
3160 3160 3160 3161 3161 3159 3156 3153 3151 3151 3151 3149 3145 3142 3140 3137 3133 3130 3127 3123 3116 3108 3101 3095 3089 3081 3073 3062 3051 3036 3021 3013 3009 3001 2998 2996 2995 2993 2995 2995 2994 2994 2994
3155 3155 3155 3155 3154 3153 3151 3149 3148 3147 3144 3141 3138 3136 3133 3131 3128 3125 3120 3115 3109 3102 3094 3088 3082 3074 3065 3054 3041 3026 3013 3010 3003 2998 2992 2989 2987 2985 2987 2988 2989 2989 2991
3148 3149 3148 3147 3145 3144 3143 3142 3141 3139 3137 3135 3132 3131 3129 3126 3123 3119 3115 3110 3104 3097 3090 3083 3076 3068 3060 3049 3035 3018 3010 3005 3000 2992 2987 2984 2981 2979 2978 2982 2985 2987 2990
3142 3141 3139 3138 3137 3136 3135 3135 3134 3133 3131 3128 3127 3125 3123 3120 3117 3113 3109 3105 3100 3094 3086 3079 3072 3064 3056 3046 3033 3016 3007 3001 2996 2986 2974 2974 2974 2974 2974 2977 2982 2983 2987
3135 3133 3131 3130 3129 3129 3129 3129 3127 3126 3124 3122 3120 3118 3117 3115 3111 3108 3104 3101 3096 3089 3083 3076 3070 3062 3055 3044 3031 3019 3005 2997 2989 2979 2970 2969 2971 2971 2970 2975 2979 2984 2988
3128 3126 3123 3122 3122 3122 3123 3122 3121 3120 3118 3116 3114 3113 3112 3109 3106 3103 3100 3096 3091 3085 3078 3073 3068 3061 3054 3044 3034 3024 3009 2998 2992 2981 2975 2973 2971 2971 2973 2976 2979 2984 2987
3121 3119 3117 3116 3117 3116 3116 3114 3113 3112 3111 3110 3110 3108 3106 3104 3102 3099 3096 3092 3086 3080 3075 3070 3065 3060 3052 3044 3036 3030 3018 3004 2995 2987 2980 2979 2978 2977 2978 2980 2983 2984 2988
3114 3113 3112 3110 3109 3108 3109 3107 3107 3105 3106 3105 3105 3103 3101 3100 3098 3095 3092 3087 3082 3077 3073 3068 3063 3058 3052 3046 3039 3032 3025 3015 3002 2994 2989 2982 2981 2983 2984 2985 2985 2988 2990
3106 3106 3105 3103 3102 3103 3103 3102 3101 3101 3101 3101 3099 3098 3096 3094 3092 3091 3088 3083 3079 3075 3071 3067 3062 3057 3050 3046 3041 3034 3026 3018 3011 3006 2997 2994 2989 2983 2988 2985 2986 2987 2989
3098 3099 3098 3098 3096 3097 3096 3096 3095 3096 3096 3096 3094 3093 3091 3090 3089 3087 3084 3081 3077 3073 3068 3065 3060 3056 3052 3046 3041 3036 3031 3025 3019 3013 3009 3002 2996 2991 2991 2992 2988 2987 2988
3091 3089 3089 3090 3090 3089 3088 3089 3090 3091 3091 3090 3090 3089 3088 3087 3086 3084 3081 3077 3073 3069 3066 3063 3058 3054 3050 3046 3042 3037 3033 3028 3023 3018 3015 3012 3007 3003 2998 2997 2995 2993 2994
3083 3082 3082 3081 3082 3081 3083 3084 3084 3085 3085 3085 3086 3085 3084 3084 3083 3080 3077 3074 3070 3067 3064 3061 3056 3052 3049 3045 3042 3038 3034 3030 3025 3022 3019 3016 3013 3010 3008 3005 3004 3003 3001
3076 3075 3075 3076 3076 3076 3076 3078 3078 3079 3080 3081 3082 3081 3080 3080 3079 3077 3074 3071 3067 3065 3062 3059 3055 3051 3048 3044 3041 3038 3034 3031 3028 3025 3022 3019 3017 3014 3012 3011 3008 3008 3006
3069 3068 3068 3069 3070 3071 3071 3072 3072 3074 3075 3076 3077 3077 3077 3077 3075 3073 3071 3068 3064 3062 3060 3057 3053 3050 3047 3044 3041 3038 3035 3032 3030 3027 3024 3022 3019 3017 3015 3013 3012 3011 3010
3063 3063 3063 3065 3066 3067 3066 3067 3069 3069 3071 3072 3073 3074 3074 3073 3072 3071 3069 3065 3063 3060 3057 3055 3051 3049 3046 3044 3041 3038 3035 3033 3030 3028 3026 3024 3022 3021 3018 3016 3014 3014 3013
3060 3060 3060 3062 3061 3063 3062 3064 3065 3066 3067 3069 3070 3071 3071 3070 3068 3068 3065 3063 3061 3058 3055 3053 3051 3048 3045 3042 3041 3038 3036 3033 3030 3029 3027 3026 3024 3022 3021 3019 3018 3017 3015
3058 3058 3058 3058 3057 3058 3060 3061 3063 3065 3065 3066 3067 3068 3068 3067 3066 3064 3062 3060 3058 3056 3054 3052 3049 3047 3044 3042 3039 3037 3035 3033 3031 3030 3028 3026 3024 3023 3021 3020 3019 3017 3015
3055 3055 3055 3055 3054 3055 3057 3059 3061 3061 3062 3062 3062 3064 3064 3062 3063 3061 3060 3058 3056 3053 3051 3050 3048 3045 3043 3041 3039 3037 3035 3033 3031 3030 3028 3026 3025 3023 3021 3019 3017 3015 3013
3051 3050 3050 3051 3051 3052 3054 3056 3056 3057 3057 3058 3059 3060 3060 3060 3060 3059 3058 3056 3054 3051 3049 3047 3045 3043 3042 3040 3038 3036 3034 3033 3031 3029 3027 3026 3024 3022 3020 3018 3016 3014 3011
3046 3046 3046 3046 3047 3049 3050 3051 3052 3054 3054 3055 3056 3056 3057 3058 3057 3056 3054 3053 3051 3049 3047 3045 3043 3042 3040 3038 3037 3035 3034 3032 3031 3029 3027 3025 3023 3021 3018 3016 3014 3011 3008
3041 3040 3041 3042 3043 3045 3046 3048 3050 3051 3052 3053 3054 3056 3056 3055 3054 3053 3051 3050 3049 3047 3046 3044 3042 3041 3039 3038 3036 3034 3032 3031 3029 3027 3025 3023 3021 3018 3015 3013 3010 3007 3005